Location: Muenchen
(48.1800°N, 11.5800°E)
Time: 02:11:15
(UTC+02:00)

Vanguard 2 Rocket - Visible Passes

Search period start: 29 July 2016 00:00
Search period end: 08 August 2016 00:00
Orbit: 555 x 3328 km, 32.9° (Epoch: 28 July)

Date Brightness Start Highest point End Pass type
(mag) Time Alt. Az. Time Alt. Az. Time Alt. Az.
29 Jul 9.7 01:20:04 23° SSE 01:20:04 23° SSE 01:28:10 10° ESE visible
29 Jul 9.1 03:25:48 21° SW 03:33:24 34° S 03:41:49 10° ESE visible
30 Jul 10.0 00:23:07 17° SE 00:23:07 17° SE 00:27:55 10° ESE visible
30 Jul 9.3 02:28:51 28° SSW 02:33:29 33° SSE 02:43:01 10° ESE visible
30 Jul 8.9 04:35:31 10° WSW 04:47:36 35° S 04:55:07 10° SE visible
30 Jul 10.4 23:25:59 10° ESE 23:25:59 10° ESE 23:26:22 10° ESE visible
31 Jul 9.5 01:31:41 30° S 01:33:17 31° SSE 01:43:50 10° ESE visible
31 Jul 9.0 03:37:23 17° SW 03:47:58 38° S 03:56:45 10° ESE visible
31 Jul10.622:28:33ESE22:28:33ESE22:10:57SSEvisible
01 Aug 9.8 00:34:12 27° SSE 00:34:12 27° SSE 00:44:08 10° ESE visible
01 Aug 9.2 02:39:52 25° SW 02:47:59 38° S 02:58:04 10° ESE visible
01 Aug 8.9 04:49:46 10° WSW 05:02:02 34° SSW 05:09:42 10° SE visible
01 Aug 10.0 23:19:14 10° S 23:36:03 21° SE 23:43:41 10° ESE visible
02 Aug 9.4 01:41:36 30° SSW 01:47:42 37° SSE 01:59:02 10° ESE visible
02 Aug 9.0 03:47:59 10° WSW 04:02:26 39° S 04:11:29 10° SE visible
02 Aug 10.2 22:21:18 10° S 22:32:10 17° SE 22:42:02 10° ESE visible
03 Aug 9.6 00:30:50 10° SW 00:47:12 34° SSE 00:59:35 10° ESE visible
03 Aug 9.1 02:46:18 10° WSW 03:02:26 42° S 03:12:55 10° ESE visible
03 Aug 9.0 05:04:14 10° WSW 05:16:19 32° SSW 05:24:04 10° SE visible
03 Aug 10.4 21:26:16 10° SSE 21:31:59 12° SE 21:37:32 10° ESE visible
03 Aug 9.8 23:30:54 10° SSW 23:46:36 30° SSE 23:59:35 10° E visible
04 Aug 9.3 01:44:54 10° SW 02:02:05 42° S 02:13:59 10° ESE visible
04 Aug 9.1 04:02:14 10° WSW 04:16:47 38° SSW 04:26:01 10° SE visible
04 Aug 10.0 22:31:50 10° S 22:46:03 25° SE 22:58:49 10° E visible
05 Aug 9.5 00:43:55 10° SW 01:01:28 40° SSE 01:14:39 10° ESE visible
05 Aug 9.2 03:00:22 10° WSW 03:16:49 43° S 03:27:33 10° ESE visible
05 Aug 9.2 05:18:58 10° W 05:30:24 27° SSW 05:38:04 10° SSE visible
05 Aug 10.2 21:34:01 10° S 21:45:40 19° SE 21:56:53 10° ESE visible
05 Aug 9.7 23:43:31 10° SW 00:00:43 37° SSE 00:14:52 10° E visible
06 Aug 9.3 01:58:44 10° WSW 02:16:28 45° S 02:28:44 10° ESE visible
06 Aug 9.2 04:16:42 10° W 04:31:00 35° SSW 04:40:18 10° SE visible
06 Aug 9.9 22:43:51 10° SSW 22:59:58 32° SSE 23:14:30 10° E visible
07 Aug 9.4 00:57:30 10° SW 01:15:46 45° S 01:29:30 10° ESE visible
07 Aug 9.2 03:14:38 10° WSW 03:31:06 41° SSW 03:42:01 10° SE visible
07 Aug 10.1 21:45:03 10° S 21:59:22 26° SE 22:13:21 10° E visible
